[[{"header":{"parameterUnit":"m.s-1","parameterCategory":1,"la1":30.2991,"la2":30.254,"lo1":-89.0895,"lo2":-89.0444,"dy":0.0017,"dx":0.0017,"nx":28,"ny":28,"refTime":"2025-01-17T09:00:00:Z","depth":0,"parameterNumber":2,"parameterNumberName":"U-component_of_WINDS"},"data":[0,0,0,0,0,0,0,0,0,0,0,0,0,0,0,0,0,0,0,0,0,0,0,0,0,0,0,0,0,0,0,0,0,0,0,0,0,0,0,0,0,0,0,0,0,0,0,0,0,0,0,0,0,0,0,0,0,0,2.7492,2.7492,0,2.7489,2.7489,2.7489,2.7416,2.7414,2.7412,2.741,2.7407,2.7408,2.741,0,0,0,0,0,0,0,0,0,0,0,0,0,2.7439,2.7441,2.7492,2.7492,2.7492,2.7489,2.7489,2.7489,2.7416,2.7414,2.7411,2.7409,2.7406,2.7408,2.741,0,0,0,0,0,0,0,0,0,0,0,0,0,2.7452,2.7441,2.7492,2.7455,2.7452,2.7489,2.7489,2.7489,2.7416,2.7414,2.7411,2.7408,2.7405,2.7408,2.741,2.7482,0,0,2.7418,2.7419,0,0,0,0,0,0,0,0,2.7451,2.7454,2.7461,2.7458,2.7454,2.745,2.7469,2.7486,2.7417,2.743,2.741,2.7407,2.7423,2.7424,2.743,2.7482,2.7482,2.7418,2.742,2.7421,2.7421,0,0,0,0,0,0,0,2.745,2.7453,2.7491,2.7461,2.7457,2.744,2.7439,2.7472,2.7442,2.7429,2.7423,2.7424,2.7421,2.7427,2.7429,2.7481,2.7418,2.742,2.7422,2.7423,2.7597,2.76,0,0,0,0,0,0,2.7454,2.7453,2.7491,2.7491,2.7446,2.7443,2.7442,2.7454,2.7442,2.7437,2.7426,2.742,2.7424,2.7426,2.7429,2.7515,2.7421,2.7423,2.7424,2.7594,2.7598,2.7601,0,0,0,0,0,0,2.7453,2.7458,2.7491,2.7471,2.7473,2.7447,2.7462,2.7455,2.7462,2.744,2.7435,2.7438,2.7422,2.7425,2.747,2.7513,2.7424,2.7426,2.759,2.7595,2.7599,2.7686,0,0,0,0,0,0,2.7452,2.7458,2.7484,2.7472,2.7475,2.7532,2.7464,2.7457,2.7466,2.7459,2.745,2.7446,2.742,2.7467,2.7473,2.7515,2.7428,2.7586,2.7592,2.7598,2.7679,2.7693,2.7705,0,0,0,0,0,2.7451,2.7508,2.7486,2.7491,2.7507,2.7535,2.7536,2.7506,2.747,2.7497,2.7484,2.7446,2.7508,2.7472,2.7478,2.7522,2.7583,2.7591,2.7597,2.7673,2.769,2.7705,0,0,0,0,0,0,2.7525,2.7505,2.7481,2.7536,2.7538,2.7522,2.7555,2.7524,2.7536,2.7529,2.7491,2.749,2.7542,2.7536,2.7497,2.7593,2.7539,2.7548,2.7595,2.7611,2.7623,2.7624,2.743,0,0,0,0,0,2.7548,2.7572,2.7553,2.7604,2.7606,2.7581,2.7592,2.7569,2.7569,2.7569,2.7559,2.7561,2.7582,2.7596,2.7613,2.7678,2.7677,2.7711,2.7724,2.7735,2.7743,2.7781,2.7798,2.7624,2.7624,2.7624,0,0,2.7595,2.7588,2.7605,2.7619,2.7617,2.7645,2.7582,2.7612,2.7632,2.7574,2.7617,2.761,2.761,2.7667,2.7691,2.7663,2.7791,2.7744,2.7753,2.7755,2.779,2.7807,2.7821,2.7629,2.7628,2.7627,0,0,2.7696,2.7692,2.7735,2.7736,2.7735,2.7719,2.7729,2.7719,2.7713,2.7756,2.7714,2.7738,2.7772,2.7775,2.7782,2.7889,2.7856,2.7895,2.7963,2.8001,2.8014,2.8026,2.8068,2.8082,2.7903,2.7903,2.7904,0,2.7755,2.7794,2.7761,2.7795,2.7804,2.7754,2.7799,2.7801,2.7806,2.7814,2.7783,2.7829,2.7825,2.7884,2.7911,2.7916,2.7929,2.7896,2.8015,2.8027,2.8037,2.8076,2.8092,2.7908,2.7908,2.7907,2.7907,0,2.7868,2.7896,2.7931,2.7939,2.7952,2.7991,2.7966,2.7983,2.796,2.7947,2.7994,2.7988,2.8005,2.8017,2.7993,2.8074,2.8057,2.8021,2.7967,2.8059,2.8096,2.811,2.7916,2.7914,2.7912,2.7911,0,0,2.8014,2.8006,2.802,2.8024,2.8022,2.8043,2.8082,2.81,2.8117,2.8123,2.8156,2.8189,2.8157,2.8164,2.8141,2.8174,2.8264,2.8134,2.8134,2.8161,2.8356,2.8385,2.8402,2.8242,2.8244,2.8246,2.8357,0,2.8113,2.8179,2.8152,2.8221,2.8248,2.8203,2.8237,2.824,2.823,2.8253,2.8242,2.8267,2.8221,2.8226,2.8257,2.8246,2.8303,2.8238,2.8275,2.8276,2.8278,2.842,2.845,2.8554,2.8371,2.8373,2.8374,0,2.8237,2.8251,2.8323,2.832,2.833,2.8361,2.8378,2.8399,2.8403,2.8394,2.8405,2.8376,2.8416,2.8361,2.8417,2.8374,2.8388,2.8386,2.8389,2.8393,2.8332,2.843,2.8586,2.8603,2.8396,2.8394,2.8393,0,2.8341,2.8376,2.8425,2.843,2.8427,2.8451,2.845,2.8452,2.8466,2.848,2.8489,2.8508,2.8519,2.8535,2.8513,2.8474,2.8574,2.8516,2.8569,2.857,2.8593,2.8592,2.8756,2.8598,2.8598,2.8598,2.8598,0,2.8455,2.8502,2.8472,2.8502,2.8554,2.8524,2.8576,2.8571,2.8574,2.8604,2.8565,2.8594,2.8562,2.8589,2.8572,2.8623,2.8628,2.8623,2.8618,2.8628,2.8629,2.8637,2.863,2.8602,2.8601,2.86,2.86,0,2.8579,2.856,2.8611,2.8605,2.8605,2.8644,2.8639,2.8668,2.8656,2.8695,2.8702,2.8685,2.8715,2.8695,2.8724,2.8713,2.8781,2.8765,2.878,2.8777,2.8832,2.8828,2.9008,2.9032,2.8858,2.8859,2.8861,0,2.8654,2.8689,2.8688,2.8706,2.8709,2.8737,2.8752,2.8725,2.8742,2.8752,2.8781,2.8807,2.8827,2.8878,2.8868,2.8892,2.8878,2.8939,2.8881,2.8891,2.8882,2.8881,2.8886,2.8952,2.8954,2.8955,2.8957,0,2.8791,2.8782,2.8804,2.8825,2.8844,2.8859,2.887,2.8887,2.8861,2.8882,2.8913,2.8929,2.8961,2.8989,2.901,2.901,2.8981,2.8975,2.8989,2.9,2.9009,2.9008,2.8815,2.8971,2.897,2.8969,2.8968,2.8967,2.8895,2.8925,2.8931,2.8959,2.8965,2.8978,2.9006,2.9,2.9025,2.9049,2.9032,2.907,2.9077,2.9101,2.9107,2.9137,2.9112,2.9132,2.9137,2.9143,2.9152,2.9003,2.914,2.914,2.9139,2.9139,2.9139,0,2.9032,2.9034,2.906,2.9079,2.9102,2.9072,2.9085,2.9106,2.914,2.9149,2.9171,2.9209,2.9237,2.9231,2.9257,2.9283,2.9271,2.9291,2.929,2.9292,2.9171,2.9158,2.9301,2.9301,2.9301,2.9301,2.9301,2.9301,2.9106,2.9158,2.915,2.9206,2.9207,2.9245,2.9255,2.9268,2.9276,2.932,2.9344,2.934,2.9345,2.9372,2.9397,2.9395,2.9408,2.9434,2.9428,2.9316,2.9299,2.9284,2.9272,2.9437,2.9437,2.9546,2.9547,2.9548]},{"header":{"parameterUnit":"m.s-1","parameterCategory":1,"la1":30.2991,"la2":30.254,"lo1":-89.0895,"lo2":-89.0444,"dy":0.0017,"dx":0.0017,"nx":28,"ny":28,"refTime":"2025-01-17T09:00:00:Z","depth":0,"parameterNumber":3,"parameterNumberName":"V-component_of_WINDS"},"data":[0,0,0,0,0,0,0,0,0,0,0,0,0,0,0,0,0,0,0,0,0,0,0,0,0,0,0,0,0,0,0,0,0,0,0,0,0,0,0,0,0,0,0,0,0,0,0,0,0,0,0,0,0,0,0,0,0,0,-3.6631,-3.663,0,-3.6537,-3.6536,-3.6535,-3.6464,-3.6464,-3.6463,-3.6463,-3.6361,-3.6358,-3.6356,0,0,0,0,0,0,0,0,0,0,0,0,0,-3.6744,-3.6743,-3.6631,-3.663,-3.6629,-3.6537,-3.6536,-3.6534,-3.6465,-3.6464,-3.6463,-3.6462,-3.6361,-3.6359,-3.6356,0,0,0,0,0,0,0,0,0,0,0,0,0,-3.6677,-3.6742,-3.6631,-3.6583,-3.6578,-3.6537,-3.6536,-3.6534,-3.6465,-3.6464,-3.6463,-3.6462,-3.6362,-3.6359,-3.6356,-3.6354,0,0,-3.6346,-3.6344,0,0,0,0,0,0,0,0,-3.6681,-3.6673,-3.6591,-3.6586,-3.658,-3.6512,-3.6538,-3.6473,-3.6465,-3.6507,-3.6463,-3.6462,-3.6411,-3.6404,-3.6388,-3.6349,-3.6345,-3.6346,-3.6344,-3.6342,-3.6341,0,0,0,0,0,0,0,-3.6686,-3.6676,-3.6593,-3.659,-3.6583,-3.6564,-3.6553,-3.6525,-3.6465,-3.6504,-3.6498,-3.6489,-3.6408,-3.6391,-3.6385,-3.6343,-3.6346,-3.6343,-3.6341,-3.6339,-3.6297,-3.6297,0,0,0,0,0,0,-3.6699,-3.6681,-3.6596,-3.6591,-3.663,-3.6563,-3.6551,-3.6534,-3.6465,-3.6454,-3.6489,-3.6486,-3.6397,-3.6389,-3.6381,-3.6374,-3.6342,-3.6339,-3.6337,-3.6296,-3.6297,-3.6298,0,0,0,0,0,0,-3.6701,-3.6692,-3.66,-3.6634,-3.6621,-3.6562,-3.6544,-3.6533,-3.6516,-3.6455,-3.6443,-3.6484,-3.6396,-3.6386,-3.6361,-3.637,-3.6338,-3.6335,-3.6295,-3.6296,-3.6297,-3.6361,0,0,0,0,0,0,-3.6705,-3.6693,-3.6694,-3.6635,-3.662,-3.6584,-3.6544,-3.6532,-3.6512,-3.6506,-3.6446,-3.6436,-3.6395,-3.6367,-3.6358,-3.6365,-3.6332,-3.6294,-3.6295,-3.6297,-3.6357,-3.6364,-3.6369,0,0,0,0,0,-3.6709,-3.6714,-3.6694,-3.6684,-3.6619,-3.6585,-3.6576,-3.653,-3.6513,-3.6511,-3.6472,-3.6438,-3.637,-3.6365,-3.6355,-3.636,-3.6293,-3.6295,-3.6297,-3.6355,-3.6362,-3.6369,0,0,0,0,0,0,-3.6773,-3.6705,-3.6682,-3.6669,-3.6633,-3.6573,-3.657,-3.654,-3.6507,-3.6503,-3.6446,-3.6433,-3.6414,-3.6384,-3.638,-3.6354,-3.6327,-3.6327,-3.6375,-3.6381,-3.6387,-3.6395,-3.633,0,0,0,0,0,-3.6786,-3.6766,-3.6707,-3.67,-3.6684,-3.6631,-3.6614,-3.6582,-3.6542,-3.6526,-3.6484,-3.6445,-3.6415,-3.6396,-3.6365,-3.6352,-3.6338,-3.6351,-3.6357,-3.6362,-3.6363,-3.6353,-3.6358,-3.6304,-3.6304,-3.6304,0,0,-3.6812,-3.6772,-3.6763,-3.6712,-3.6681,-3.666,-3.6618,-3.6597,-3.658,-3.6522,-3.6497,-3.6465,-3.6418,-3.6399,-3.6389,-3.6373,-3.6374,-3.6364,-3.6369,-3.6366,-3.6355,-3.636,-3.6365,-3.6305,-3.6305,-3.6304,0,0,-3.6848,-3.6816,-3.6807,-3.6777,-3.6731,-3.6695,-3.6693,-3.6638,-3.6615,-3.6589,-3.6545,-3.6522,-3.6472,-3.644,-3.6417,-3.644,-3.6407,-3.6431,-3.6462,-3.6453,-3.6457,-3.6461,-3.6469,-3.6472,-3.6432,-3.6432,-3.6432,0,-3.6885,-3.6853,-3.6806,-3.6788,-3.6767,-3.6715,-3.6704,-3.6676,-3.6622,-3.6607,-3.6591,-3.6527,-3.6491,-3.6464,-3.647,-3.6453,-3.6447,-3.6438,-3.6461,-3.6464,-3.6466,-3.6473,-3.6477,-3.6435,-3.6435,-3.6435,-3.6434,0,-3.6901,-3.688,-3.6877,-3.6828,-3.6806,-3.6792,-3.6741,-3.6724,-3.6693,-3.6659,-3.6632,-3.6588,-3.6547,-3.6537,-3.6507,-3.6506,-3.6498,-3.6472,-3.6444,-3.6476,-3.6481,-3.6483,-3.644,-3.6439,-3.6438,-3.6437,0,0,-3.6976,-3.6901,-3.6901,-3.6878,-3.6823,-3.6804,-3.6786,-3.6748,-3.6734,-3.6697,-3.668,-3.6639,-3.6615,-3.6589,-3.6554,-3.6546,-3.6567,-3.6521,-3.6519,-3.6531,-3.6562,-3.6582,-3.6586,-3.6544,-3.6544,-3.6545,-3.6566,0,-3.7003,-3.6972,-3.6929,-3.6911,-3.6889,-3.6839,-3.6824,-3.6787,-3.6754,-3.6729,-3.6691,-3.6663,-3.6633,-3.6617,-3.6607,-3.6567,-3.6572,-3.6564,-3.6526,-3.6526,-3.6541,-3.6589,-3.661,-3.6632,-3.6567,-3.6568,-3.6568,0,-3.7032,-3.7,-3.6981,-3.6928,-3.6917,-3.6904,-3.6865,-3.6843,-3.6799,-3.6775,-3.6747,-3.6709,-3.6686,-3.666,-3.6627,-3.6622,-3.6604,-3.6581,-3.6581,-3.6576,-3.6549,-3.6585,-3.6638,-3.6641,-3.6571,-3.6571,-3.657,0,-3.7089,-3.7041,-3.7023,-3.7004,-3.6942,-3.6934,-3.6907,-3.6862,-3.6842,-3.6807,-3.6792,-3.6754,-3.6733,-3.6704,-3.6656,-3.6642,-3.6627,-3.6598,-3.6605,-3.6607,-3.6605,-3.6606,-3.6656,-3.6593,-3.6593,-3.6593,-3.6593,0,-3.7124,-3.7114,-3.7048,-3.7037,-3.7024,-3.6973,-3.696,-3.6928,-3.6889,-3.687,-3.6822,-3.6805,-3.6743,-3.6717,-3.6679,-3.6656,-3.6647,-3.6626,-3.6616,-3.6631,-3.6633,-3.6618,-3.6615,-3.6594,-3.6593,-3.6593,-3.6593,0,-3.7186,-3.7141,-3.7118,-3.7061,-3.7046,-3.7039,-3.6988,-3.6974,-3.6938,-3.6914,-3.6905,-3.6848,-3.6815,-3.6764,-3.6716,-3.669,-3.6674,-3.6657,-3.669,-3.6684,-3.6694,-3.6694,-3.6736,-3.6739,-3.6675,-3.6675,-3.6676,0,-3.7212,-3.7203,-3.7145,-3.713,-3.7105,-3.7081,-3.706,-3.7008,-3.6988,-3.6938,-3.693,-3.6894,-3.6863,-3.6812,-3.6764,-3.6726,-3.6709,-3.6726,-3.6703,-3.6717,-3.6709,-3.671,-3.6709,-3.6732,-3.6733,-3.6734,-3.6734,0,-3.7263,-3.7241,-3.7214,-3.7179,-3.7156,-3.7126,-3.7092,-3.7082,-3.7023,-3.7002,-3.6969,-3.6945,-3.6896,-3.686,-3.6816,-3.6785,-3.6749,-3.6742,-3.6742,-3.6757,-3.6776,-3.6766,-3.6705,-3.6741,-3.6741,-3.674,-3.674,-3.6739,-3.7307,-3.7298,-3.7256,-3.7227,-3.7197,-3.7167,-3.7151,-3.7114,-3.7086,-3.7044,-3.7014,-3.6983,-3.6937,-3.6875,-3.6846,-3.6819,-3.6804,-3.6803,-3.6803,-3.6804,-3.6809,-3.678,-3.681,-3.681,-3.681,-3.681,-3.6809,0,-3.7356,-3.7327,-3.7301,-3.7257,-3.7234,-3.7204,-3.7166,-3.7148,-3.7122,-3.7084,-3.7054,-3.7015,-3.698,-3.693,-3.689,-3.6878,-3.6861,-3.687,-3.687,-3.6864,-3.6825,-3.683,-3.6885,-3.6885,-3.6885,-3.6885,-3.6885,-3.6885,-3.7379,-3.7361,-3.7334,-3.73,-3.7269,-3.724,-3.722,-3.7192,-3.7161,-3.7121,-3.7093,-3.7061,-3.7017,-3.6974,-3.694,-3.6926,-3.6913,-3.6927,-3.6908,-3.6873,-3.6866,-3.686,-3.6864,-3.6925,-3.6925,-3.6948,-3.6949,-3.6949]}]]